Wind_Speed
7 6 5 5 4 4 4 4 5 6 7 8 9 10 11 11 12 11 11 11 11 11 11 11 11 11 11 11 10 10 9 10 10 10 10 11 12 12 12 13 13 14 14
9 8 7 6 5 5 5 5 6 6 7 8 9 10 11 12 12 11 11 12 12 12 12 12 12 13 13 13 12 12 12 12 13 13 14 14 15 15 16 16 16 17 17
10 10 9 8 7 7 7 7 7 7 8 9 10 11 11 12 12 12 12 12 12 13 13 13 14 14 14 14 14 14 15 15 16 16 17 17 18 18 19 19 20 20 21
11 11 10 10 9 9 9 9 9 9 10 10 11 12 12 12 13 13 13 14 14 15 15 16 16 16 16 16 16 17 17 18 18 19 19 20 20 21 21 22 23 23 24
13 12 12 12 12 11 11 11 11 11 12 12 13 13 13 13 14 15 15 16 17 18 18 18 18 18 18 19 19 20 20 21 21 22 22 23 23 24 24 25 25 26 27
14 14 14 14 14 13 13 13 13 13 14 14 15 15 15 15 16 17 18 18 19 20 20 20 21 21 21 21 22 23 23 23 24 24 25 25 26 27 27 28 29 29 30
15 16 15 15 15 15 15 15 15 15 16 16 16 17 17 18 18 19 20 21 21 22 22 23 23 23 24 24 25 25 26 26 26 27 28 28 29 30 31 31 32 33 34
17 17 17 17 17 16 17 17 17 17 17 18 18 19 19 20 20 21 22 23 24 24 25 25 26 26 26 27 27 28 28 28 29 30 30 32 32 33 34 35 36 36 37
19 19 19 19 19 19 19 19 19 19 19 20 20 21 21 22 23 23 25 26 27 27 27 28 28 29 29 30 30 30 31 31 32 32 33 34 35 37 38 39 40 41 41
20 21 21 21 21 21 21 21 21 21 21 22 23 23 23 24 25 26 28 29 29 29 30 30 31 32 32 32 32 32 33 33 34 35 36 37 38 40 41 43 44 45 46
23 23 23 23 23 23 23 23 23 23 24 24 25 25 26 27 28 29 30 31 31 32 33 33 34 35 35 35 34 34 35 36 37 38 39 40 41 42 44 45 47 48 49
24 24 24 24 24 24 24 25 25 25 26 26 27 28 29 30 30 31 33 34 34 35 35 36 37 37 37 37 37 37 38 39 39 40 41 42 44 45 46 48 50 51 52
25 25 25 25 25 25 26 26 27 27 28 29 29 30 31 32 33 34 35 36 36 37 37 38 38 38 38 38 39 40 41 42 43 44 44 46 47 49 50 52 53 54 55
26 26 26 26 27 27 28 29 29 30 30 31 31 32 33 35 36 36 37 38 39 39 39 40 40 40 40 41 41 43 44 45 46 47 48 49 50 52 53 55 56 57 57
27 28 28 28 29 29 30 31 31 32 33 34 34 35 36 37 38 39 39 40 40 41 41 41 41 42 42 44 45 46 47 48 49 50 51 52 53 55 56 57 59 60 61
29 29 30 31 31 31 32 32 33 35 35 36 37 38 39 40 41 41 42 42 43 43 44 44 44 44 45 46 48 49 49 50 51 53 54 55 56 58 59 60 62 63 63
31 31 32 32 33 33 34 35 36 37 38 39 40 41 41 42 43 44 44 45 45 46 46 47 47 48 48 49 50 50 51 52 54 55 56 57 59 60 61 63 64 65 65
32 33 33 34 35 36 37 38 39 39 40 41 42 43 44 45 46 46 47 47 47 48 48 49 50 50 50 51 51 51 52 54 55 56 58 59 60 62 63 64 64 65 64
34 35 35 36 38 39 39 40 41 42 43 44 44 45 46 47 48 48 49 49 49 49 50 50 50 51 51 52 52 53 54 55 56 58 59 60 62 63 64 64 64 64 63
37 37 39 39 41 42 42 43 44 45 45 46 47 47 48 49 49 49 50 50 50 51 51 51 51 51 52 53 54 55 56 57 58 59 60 62 63 64 64 64 64 63 62
40 40 41 42 43 44 45 46 46 47 48 48 49 49 50 50 50 50 51 51 51 51 51 52 52 53 53 55 56 57 58 59 60 61 62 63 63 64 64 64 63 62 62
42 43 44 44 45 46 46 47 48 49 49 50 50 51 51 51 51 51 52 52 51 51 52 52 53 54 55 56 58 59 60 61 62 63 63 63 63 63 63 62 62 61 60
43 44 45 46 47 47 48 49 50 50 51 51 52 52 53 53 53 52 52 52 53 53 54 54 55 55 57 58 60 61 62 62 63 64 64 63 63 62 62 61 60 60 58
45 46 47 47 48 49 49 50 51 52 52 53 53 53 54 53 53 53 54 54 54 55 55 56 57 58 59 60 61 62 62 63 63 63 63 63 63 62 61 60 59 57 56
47 47 47 48 49 50 51 51 52 53 53 53 54 54 54 54 54 54 55 55 56 56 56 57 58 59 60 61 61 62 62 62 62 62 63 62 61 60 59 58 56 54 53
49 49 49 50 50 51 52 52 53 54 54 54 54 54 54 54 55 55 56 56 57 57 57 58 59 60 60 60 61 61 61 61 61 61 61 60 59 57 56 55 53 52 52
Wind_Direction
234 241 250 260 274 294 311 325 336 341 346 352 356 358 360 359 359 1 4 7 8 8 6 4 2 357 353 349 344 339 334 331 329 325 321 318 316 313 310 307 305 300 296
239 245 251 258 268 282 295 307 318 324 331 338 342 344 348 351 352 353 354 357 357 354 352 349 346 344 341 338 334 328 324 320 316 314 313 311 309 306 305 304 303 300 297
243 248 252 257 265 275 287 296 303 310 318 325 329 332 335 340 343 344 344 344 344 342 341 338 335 333 331 328 324 321 318 315 312 311 309 308 305 303 302 302 302 300 298
246 250 254 259 264 272 281 289 294 299 308 316 320 323 327 330 333 335 334 333 332 332 332 330 327 324 321 319 316 315 313 310 309 308 308 307 305 303 302 300 299 299 298
249 253 257 261 266 272 278 283 289 293 301 308 312 314 316 319 322 325 324 323 323 323 323 323 321 320 318 315 313 312 309 307 305 304 305 305 303 302 300 299 298 298 296
253 256 260 263 266 270 275 280 285 289 295 301 304 307 309 311 314 316 317 316 317 318 319 318 317 316 314 312 311 309 307 304 302 302 302 302 301 300 299 298 297 296 295
256 259 261 264 266 270 274 279 283 287 291 295 299 302 304 305 308 311 312 312 313 314 315 314 313 312 311 309 308 307 305 304 302 301 301 301 300 299 298 297 296 295 294
258 261 263 265 268 271 275 278 282 286 289 292 295 298 300 301 303 306 309 310 310 311 312 311 310 308 307 307 306 305 303 302 300 301 301 300 300 299 299 298 297 296 294
259 261 264 266 269 272 275 279 281 285 288 291 293 295 297 299 301 303 305 307 308 308 309 308 307 306 305 305 304 302 301 300 300 301 300 300 299 298 298 298 297 296 295
259 262 265 267 269 271 274 277 280 283 287 289 291 293 295 297 299 302 303 304 305 305 306 306 306 305 304 303 302 301 300 299 299 299 299 298 298 298 298 298 298 297 296
261 264 266 268 270 272 274 277 280 283 286 288 290 292 294 296 299 301 302 303 303 303 304 304 304 304 303 302 301 300 299 298 298 298 298 297 298 298 298 299 298 298 297
263 265 266 268 270 272 275 278 281 284 287 289 290 292 294 296 298 299 300 301 301 302 302 303 303 303 302 301 300 299 299 299 298 298 298 298 298 299 299 299 299 298 298
264 265 267 268 271 274 277 280 282 285 287 289 290 292 294 295 297 298 299 301 301 301 301 301 302 302 301 300 300 299 299 298 298 298 298 298 299 300 300 300 299 299 298
265 266 268 270 272 275 278 281 283 285 287 289 291 292 293 294 296 297 298 299 300 300 300 300 300 300 299 299 299 299 299 298 298 298 298 299 299 300 300 300 300 299 299
266 268 269 271 274 276 279 281 283 285 287 289 290 292 293 294 295 296 297 299 299 299 299 299 299 299 298 298 298 298 298 298 298 298 299 299 299 300 300 300 300 300 300
268 269 271 273 275 277 279 281 284 286 288 289 290 292 293 294 295 296 297 298 298 298 298 299 298 299 299 299 298 298 298 297 298 299 299 299 300 300 300 301 301 301 301
270 271 272 273 275 277 279 282 284 286 288 289 290 292 293 294 295 296 297 298 298 298 297 298 298 298 299 299 299 298 298 298 298 299 300 300 301 301 301 302 302 302 301
271 272 273 275 276 278 280 282 285 286 288 289 290 291 293 294 295 296 296 296 297 297 298 298 297 298 298 299 299 299 299 299 299 300 301 301 302 303 303 303 303 303 302
272 273 275 276 278 280 282 284 285 286 287 289 290 291 292 293 294 295 296 296 296 296 297 298 298 298 298 298 299 299 300 301 301 301 302 303 303 303 304 304 304 304 304
274 275 276 278 280 282 283 284 285 286 288 289 290 291 292 293 294 294 295 296 296 296 296 297 298 298 298 298 299 299 300 301 302 303 303 303 303 303 304 304 304 304 304
276 277 278 279 281 282 283 285 286 287 288 289 290 291 292 292 293 294 295 295 295 296 296 296 297 298 298 299 299 300 300 301 301 302 303 304 304 304 304 304 304 304 304
277 278 279 280 282 283 284 285 286 287 289 289 290 291 292 292 293 294 294 295 295 295 296 296 297 298 299 299 300 301 301 301 302 302 303 304 304 304 304 304 305 304 304
277 278 279 281 282 283 284 285 287 288 289 290 290 291 292 292 293 293 294 294 295 295 296 296 297 298 299 299 300 301 301 302 302 303 303 304 304 304 304 304 304 304 303
278 279 280 281 282 283 284 286 287 288 289 289 290 291 292 292 292 293 293 294 295 295 296 296 297 298 298 300 301 301 302 302 303 303 304 304 304 304 304 304 304 304 303
279 280 281 282 283 284 285 286 287 288 289 290 290 290 291 291 292 292 293 294 295 296 296 297 298 299 299 300 300 301 302 302 303 304 304 305 305 304 304 304 304 303 303
279 280 281 282 283 284 286 287 287 288 289 289 289 290 290 291 291 292 293 294 295 296 297 298 298 299 299 300 300 301 302 302 303 304 305 305 305 305 304 304 303 303 303
Height
5889 5890 5890 5891 5891 5891 5891 5890 5890 5889 5888 5887 5886 5885 5883 5881 5880 5878 5876 5874 5873 5872 5870 5869 5868 5867 5866 5865 5865 5864 5863 5863 5862 5862 5861 5861 5860 5860 5859 5859 5859 5858 5858
5887 5888 5889 5889 5890 5890 5890 5889 5889 5888 5887 5886 5885 5884 5883 5881 5879 5878 5876 5875 5873 5872 5870 5869 5868 5866 5865 5864 5863 5862 5861 5860 5860 5859 5859 5858 5857 5856 5856 5855 5855 5854 5854
5885 5886 5887 5887 5888 5888 5888 5888 5887 5887 5886 5885 5884 5883 5881 5880 5878 5877 5876 5874 5872 5871 5869 5868 5866 5864 5863 5862 5860 5859 5858 5857 5856 5856 5855 5854 5853 5852 5851 5851 5850 5849 5848
5882 5884 5885 5885 5886 5886 5886 5886 5885 5885 5884 5884 5882 5881 5880 5878 5877 5875 5874 5872 5871 5869 5867 5865 5863 5862 5860 5858 5857 5856 5854 5853 5852 5851 5850 5849 5848 5847 5846 5845 5844 5843 5842
5880 5881 5882 5883 5883 5883 5883 5883 5883 5882 5882 5881 5880 5879 5878 5876 5875 5873 5872 5870 5868 5866 5864 5862 5860 5858 5856 5854 5853 5851 5850 5848 5847 5846 5845 5844 5842 5841 5840 5839 5837 5836 5835
5877 5878 5879 5879 5880 5880 5880 5880 5880 5879 5879 5878 5877 5876 5874 5873 5872 5870 5868 5867 5865 5862 5860 5858 5856 5853 5851 5849 5848 5846 5844 5843 5841 5840 5839 5837 5835 5834 5832 5831 5829 5828 5826
5873 5874 5875 5876 5876 5876 5877 5877 5876 5876 5875 5874 5873 5872 5871 5869 5868 5866 5864 5862 5860 5858 5855 5853 5851 5848 5846 5844 5842 5840 5837 5835 5834 5833 5831 5829 5827 5826 5824 5822 5820 5818 5816
5869 5870 5871 5871 5872 5872 5872 5872 5872 5871 5871 5870 5869 5867 5866 5865 5863 5861 5859 5857 5855 5852 5850 5847 5845 5842 5840 5837 5835 5833 5831 5828 5827 5825 5823 5821 5818 5816 5814 5812 5810 5808 5805
5865 5865 5866 5867 5867 5867 5867 5867 5867 5866 5866 5865 5864 5862 5861 5859 5858 5856 5854 5852 5849 5846 5843 5841 5838 5835 5833 5830 5828 5825 5823 5821 5819 5816 5814 5811 5808 5806 5803 5800 5798 5795 5793
5859 5860 5861 5861 5862 5862 5862 5862 5861 5861 5860 5859 5858 5857 5855 5854 5852 5850 5847 5845 5842 5840 5837 5834 5830 5827 5825 5822 5820 5817 5815 5812 5810 5807 5804 5801 5798 5795 5791 5788 5785 5782 5779
5853 5854 5855 5855 5856 5856 5856 5856 5855 5855 5854 5853 5852 5850 5849 5847 5845 5843 5840 5837 5835 5832 5829 5825 5822 5819 5816 5813 5810 5808 5805 5803 5800 5797 5794 5791 5787 5784 5780 5776 5771 5767 5764
5847 5848 5849 5849 5849 5849 5849 5849 5848 5848 5847 5846 5845 5843 5841 5839 5837 5835 5832 5829 5826 5823 5820 5817 5813 5810 5806 5803 5800 5797 5794 5792 5789 5786 5783 5779 5776 5772 5767 5763 5758 5753 5748
5840 5841 5842 5842 5842 5842 5842 5842 5841 5840 5839 5838 5837 5835 5833 5831 5829 5826 5823 5820 5817 5814 5810 5807 5803 5800 5796 5793 5790 5786 5783 5780 5777 5774 5770 5766 5762 5758 5753 5748 5743 5738 5733
5833 5834 5834 5835 5835 5835 5834 5834 5833 5832 5831 5830 5828 5826 5824 5822 5819 5817 5814 5810 5807 5804 5800 5797 5793 5789 5786 5782 5779 5775 5771 5768 5764 5760 5756 5752 5748 5743 5737 5732 5727 5721 5717
5826 5826 5827 5827 5827 5827 5826 5825 5825 5824 5822 5821 5819 5817 5814 5812 5809 5806 5803 5800 5796 5793 5789 5786 5782 5778 5774 5770 5767 5763 5759 5754 5750 5746 5742 5737 5732 5726 5721 5715 5709 5703 5698
5818 5818 5819 5818 5818 5818 5817 5817 5815 5814 5812 5810 5808 5806 5804 5801 5798 5795 5791 5788 5784 5781 5777 5773 5769 5765 5762 5757 5753 5749 5744 5740 5735 5730 5725 5720 5715 5709 5704 5697 5690 5684 5677
5810 5810 5810 5809 5809 5809 5808 5807 5805 5804 5802 5800 5797 5795 5792 5789 5786 5783 5779 5775 5771 5768 5764 5760 5756 5752 5748 5743 5738 5734 5729 5724 5719 5714 5709 5703 5697 5691 5685 5679 5672 5664 5657
5800 5800 5800 5800 5799 5799 5798 5796 5795 5793 5791 5788 5786 5783 5780 5777 5773 5770 5766 5762 5758 5754 5750 5746 5742 5737 5733 5728 5723 5719 5714 5709 5703 5698 5692 5686 5679 5673 5666 5659 5652 5645 5638
5790 5790 5790 5789 5788 5787 5786 5785 5783 5781 5779 5776 5774 5771 5767 5763 5760 5756 5752 5748 5744 5740 5736 5731 5727 5722 5718 5713 5708 5703 5698 5693 5687 5681 5675 5669 5662 5655 5648 5641 5633 5626 5618
5780 5779 5779 5778 5777 5775 5774 5772 5770 5768 5765 5763 5760 5757 5753 5749 5746 5742 5738 5733 5729 5725 5721 5717 5712 5707 5703 5698 5693 5687 5682 5676 5671 5664 5658 5651 5644 5636 5629 5622 5615 5607 5600
5768 5768 5767 5765 5764 5762 5761 5758 5756 5754 5751 5749 5746 5742 5738 5735 5731 5727 5723 5719 5715 5710 5706 5701 5697 5692 5687 5682 5676 5671 5665 5660 5654 5647 5640 5633 5626 5618 5611 5604 5596 5589 5582
5756 5755 5754 5753 5751 5749 5747 5745 5742 5739 5737 5734 5731 5727 5723 5720 5716 5712 5708 5704 5700 5695 5691 5686 5681 5676 5671 5666 5660 5654 5648 5642 5636 5629 5623 5615 5608 5601 5593 5586 5579 5572 5564
5743 5742 5740 5739 5737 5735 5732 5730 5727 5725 5722 5718 5715 5712 5708 5704 5700 5697 5693 5688 5684 5680 5675 5670 5666 5661 5655 5649 5643 5637 5631 5624 5618 5611 5604 5598 5591 5583 5576 5569 5562 5555 5548
5729 5728 5726 5724 5722 5720 5717 5715 5712 5709 5706 5703 5699 5696 5692 5688 5684 5680 5677 5672 5668 5664 5659 5654 5649 5644 5638 5632 5626 5620 5613 5606 5600 5593 5586 5579 5573 5566 5559 5552 5545 5538 5531
5715 5713 5711 5709 5707 5705 5702 5699 5696 5693 5690 5687 5683 5680 5676 5672 5668 5664 5660 5656 5651 5647 5642 5637 5632 5626 5621 5615 5609 5602 5596 5589 5582 5575 5568 5562 5555 5548 5542 5535 5529 5522 5516
5700 5698 5696 5694 5692 5689 5686 5683 5680 5677 5674 5670 5667 5663 5659 5655 5652 5648 5643 5639 5635 5630 5625 5620 5615 5609 5603 5597 5591 5585 5579 5572 5565 5558 5551 5545 5538 5532 5525 5519 5513 5507 5502